Location: Düngen
(52.0952°N, 10.0219°E)
Time: 15:32:15
(UTC+00:00)

NOSS 3-2 (C) - Pass Details

Date: 11 March 2026
Orbit: 672 x 1536 km, 63.4° (Epoch: 2 January)

Event Time Altitude Azimuth Distance (km) Brightness Sun altitude
Rises 20:53:03 0° 251° (WSW) 3,195 6.6 -31.5°
Reaches altitude 10° 20:55:21 10° 258° (WSW) 2,353 5.9 -31.8°
Maximum altitude 21:00:33 46° 332° (NNW) 1,186 4.2 -32.4°
Drops below altitude 10° 21:06:55 10° 45° (NE) 2,874 5.9 -33.0°
Sets 21:09:59 0° 52° (NE) 3,979 6.7 -33.4°
